User: anonymous   Login
Location: Vancouver
(49.2500°N, 123.1330°W)
Time: 00:06:49
(UTC-07:00)
Language:

JAS-1B - Orbit

View from above orbital plane
View from above orbital plane
View from above satellite
View from above satellite

Ground track
Ground track

The orbit data is extracted from the following two-line orbital elements,

1 20480U 90013C   15087.81479715 -.00000003  00000-0  58379-4 0  9990
2 20480 099.0742 002.8651 0540985 069.4328 327.1526 12.83403619177640
Epoch (UTC): 28 March 2015 19:33:18
Eccentricity: 0.0540985
inclination: 99.0742°
perigee height: 911 km
apogee height: 1744 km
right ascension of ascending node: 2.8651°
argument of perigee: 69.4328°
revolutions per day: 12.83403619
mean anomaly at epoch: 327.1526°
orbit number at epoch: 17764

The dashed part of the orbit path shows where the satellite is in the earth's shadow,  

DLR